Wind_Speed
47 48 48 48 47 48 50 51 53 54 54 55 55 54 56 57 56 54 54 55 54 53 52 52 50 49 48 47 45 44 44 43 42 40 40 39 38 38 38 37 37 37 36
46 47 47 49 49 47 49 51 52 53 53 54 54 54 55 57 57 56 56 56 55 54 54 53 53 51 50 49 48 47 46 45 44 42 41 41 40 40 40 39 39 39 39
45 45 47 48 50 50 50 51 53 54 54 54 54 53 54 56 57 56 55 56 56 54 53 53 54 53 51 50 49 49 49 48 46 45 43 42 42 41 41 41 41 41 40
45 45 46 47 49 52 53 53 54 55 56 55 54 54 54 55 56 58 58 57 57 55 55 54 54 54 53 51 51 50 49 49 48 47 45 44 43 43 42 42 42 42 42
45 46 47 47 48 49 52 54 54 55 56 56 55 55 55 56 56 56 57 57 58 57 56 56 55 55 53 52 52 51 50 50 50 49 48 45 45 44 44 44 43 43 43
44 46 47 48 48 49 50 52 53 54 55 56 57 56 56 55 55 55 57 56 56 57 57 56 56 56 55 54 53 53 53 52 51 51 50 47 46 46 45 44 44 44 44
44 46 47 47 48 49 50 52 54 54 54 55 57 58 58 58 57 56 55 55 55 55 57 57 56 56 56 56 55 54 54 53 52 52 52 49 47 47 47 46 46 46 45
45 46 47 48 48 48 49 50 52 55 55 56 56 58 59 58 57 56 56 55 55 55 55 55 55 55 57 56 55 54 53 53 53 52 52 51 49 48 49 48 47 48 48
44 46 47 48 49 49 49 50 51 53 55 56 57 58 58 58 58 57 57 57 56 55 54 54 55 55 55 55 54 54 54 54 54 53 52 51 51 50 50 50 50 49 50
43 44 47 48 48 48 49 50 51 51 53 55 57 58 58 58 58 57 57 58 57 56 56 56 55 55 54 53 53 54 54 54 55 54 54 54 53 52 52 52 52 52 52
42 43 45 47 47 47 48 50 51 51 52 55 57 58 58 59 59 57 56 56 56 57 58 58 57 56 54 53 53 53 54 54 54 55 56 56 55 54 55 54 54 54 54
40 42 43 44 46 47 48 48 49 51 52 54 56 58 58 59 59 59 59 58 57 57 58 58 57 56 55 55 55 54 54 54 55 55 55 55 54 54 55 55 55 55 55
37 39 40 41 42 43 44 45 47 49 51 52 53 55 56 57 58 59 60 60 59 58 58 58 57 56 56 56 55 55 55 55 55 55 55 56 56 55 55 55 55 56 56
35 36 38 38 39 41 42 43 44 46 47 47 49 51 53 54 56 58 59 60 60 60 59 58 57 57 56 56 55 55 56 56 55 54 55 55 55 55 55 55 56 56 56
32 33 35 36 37 38 40 40 41 42 43 44 45 48 50 51 53 55 56 58 58 58 57 57 57 57 56 55 55 55 55 55 56 56 56 56 56 56 56 56 56 56 55
30 30 32 34 34 35 36 38 38 38 39 41 42 44 46 48 49 51 53 55 56 56 57 57 57 57 56 56 55 53 53 53 54 55 55 55 56 56 56 56 55 55 55
29 30 31 32 32 34 34 35 35 37 37 38 39 40 43 45 47 49 50 52 53 54 55 56 56 56 56 56 55 54 53 53 52 52 53 54 54 55 55 55 55 55 55
28 29 30 31 32 33 34 34 34 35 36 37 38 39 41 43 45 46 48 48 49 51 52 52 53 54 54 55 54 54 54 54 53 53 53 53 54 54 54 54 54 54 53
28 28 29 30 31 32 33 33 33 34 35 36 37 38 40 41 43 44 46 46 47 48 49 49 50 52 52 53 53 53 53 53 53 53 53 53 53 53 53 53 53 52 52
28 28 28 28 29 30 31 32 33 34 34 35 36 37 39 40 41 43 45 46 46 46 46 47 47 49 50 50 51 51 51 51 51 51 51 50 50 50 50 51 51 51 51
27 27 28 28 28 28 30 31 32 33 34 34 35 36 38 39 40 42 43 45 45 45 45 45 46 47 48 48 48 49 49 49 48 48 48 48 48 48 49 49 49 49 49
25 25 26 27 28 27 28 29 30 31 32 33 34 35 37 38 39 41 42 43 44 44 44 44 44 45 45 46 47 47 47 46 46 46 46 46 47 48 48 47 46 47 47
23 24 25 26 26 27 27 28 29 30 31 32 34 35 35 36 37 39 41 42 43 43 43 43 44 43 43 44 45 46 45 45 44 45 45 45 45 45 45 46 46 46 46
21 22 23 24 25 26 27 27 28 29 30 31 32 33 34 35 36 37 39 41 42 43 43 43 43 42 43 43 43 43 43 43 43 43 43 43 43 44 44 44 44 44 44
21 21 22 23 24 25 26 27 28 28 29 30 31 31 32 33 33 35 36 38 39 40 40 41 42 42 42 42 41 41 41 41 41 42 42 42 42 42 42 42 41 41 40
20 21 21 22 23 24 25 26 26 27 28 29 30 31 31 32 32 33 34 35 37 38 39 40 40 40 40 41 41 40 40 40 40 40 41 41 41 41 41 41 41 41 41
Wind_Direction
239 239 238 235 236 236 233 232 232 232 232 233 234 235 234 232 232 233 234 234 235 236 237 237 238 239 240 242 243 244 245 246 249 251 253 254 256 258 259 261 263 265 266
240 239 238 237 235 234 233 233 233 233 232 232 233 234 234 232 232 233 234 234 236 237 237 237 237 239 241 242 243 244 246 247 249 250 253 254 256 258 260 261 262 264 267
243 241 240 239 237 236 236 234 234 234 233 233 234 234 234 232 232 233 233 235 236 237 237 238 238 239 241 242 243 245 246 248 249 250 252 255 256 258 261 263 264 265 266
244 243 243 240 240 240 238 237 235 235 234 233 233 233 233 232 233 234 235 237 236 237 238 238 239 240 241 242 243 245 246 248 250 251 253 255 256 258 261 263 265 265 266
245 245 245 243 243 243 241 239 238 236 235 234 234 234 233 232 233 234 236 236 237 238 239 238 239 240 241 242 244 245 247 248 249 250 252 255 256 258 261 263 264 266 267
248 248 246 245 245 245 243 240 239 238 237 236 235 234 233 233 233 234 235 235 237 238 240 240 240 240 242 243 245 246 247 248 249 250 251 253 256 258 260 262 264 265 267
251 250 247 245 245 245 243 241 239 238 238 237 236 234 233 234 234 235 236 236 237 238 239 240 242 243 243 245 246 247 248 249 250 251 251 253 256 257 259 261 263 265 267
252 250 248 246 246 245 243 241 240 239 238 237 236 234 234 234 235 236 236 237 238 239 240 241 242 244 244 246 246 247 248 249 250 251 253 254 256 258 259 261 263 265 267
252 251 250 248 247 246 244 242 241 241 240 239 237 237 237 237 237 237 237 237 238 238 239 240 242 243 244 246 246 248 250 250 251 253 253 255 257 258 260 262 263 265 266
254 251 250 249 248 247 245 244 244 243 242 239 239 239 239 239 239 238 238 238 239 239 240 241 242 243 244 245 246 248 250 251 252 253 254 255 257 258 260 262 264 266 267
254 252 251 249 248 247 247 246 246 245 244 242 241 241 241 241 240 240 239 240 241 241 241 242 243 244 245 245 247 249 251 252 253 254 255 256 257 258 261 263 264 266 267
254 252 250 250 250 250 249 247 247 246 246 245 243 242 242 241 241 240 240 240 241 241 241 242 243 244 245 247 248 249 251 252 253 254 255 256 257 259 261 263 265 265 266
254 251 249 248 249 248 247 247 246 246 247 246 245 243 242 242 241 240 241 241 241 241 241 241 242 243 245 246 248 250 251 252 252 254 255 256 258 259 261 262 264 265 265
257 252 249 248 248 248 247 247 246 245 246 246 244 243 242 241 240 240 240 239 240 240 241 241 241 243 244 245 247 248 249 251 252 254 255 256 257 259 260 261 263 264 265
257 253 250 250 250 249 248 248 248 247 246 244 243 242 240 239 239 239 239 238 239 240 241 242 243 244 244 245 246 248 250 252 253 253 255 256 257 258 259 261 263 265 265
258 255 253 252 250 248 248 247 248 247 245 245 243 242 241 240 238 239 238 239 240 240 241 242 243 244 245 246 247 248 250 251 253 254 255 256 257 258 259 261 263 265 267
261 257 256 254 251 248 247 247 246 245 245 244 243 242 241 241 240 239 239 240 240 241 241 242 243 243 244 245 247 248 249 251 251 252 254 255 256 258 259 262 264 265 267
262 258 257 255 253 250 248 248 247 247 246 245 244 242 241 240 240 240 240 240 242 242 242 242 242 243 244 245 246 248 249 251 252 252 254 256 257 259 261 263 264 265 266
263 260 258 255 252 250 249 249 248 248 247 246 245 244 243 241 240 241 240 241 243 244 243 242 242 243 244 245 247 248 249 251 253 253 255 256 259 260 261 263 264 265 265
262 260 257 256 254 251 251 250 250 249 248 247 245 244 243 242 241 240 240 241 242 243 243 242 242 243 243 245 247 248 250 252 254 255 256 257 259 260 261 262 263 264 265
263 260 258 257 255 254 252 252 250 249 248 248 246 245 243 242 241 241 241 242 243 243 243 242 242 243 243 245 246 247 249 251 252 254 256 256 258 259 261 262 263 264 265
264 261 259 258 256 256 255 253 252 250 249 248 247 245 243 242 241 241 241 242 243 243 243 243 243 243 243 244 246 247 248 250 252 253 255 257 258 258 260 261 263 265 267
267 263 260 258 257 256 256 255 253 251 249 248 246 245 244 243 243 242 241 240 241 241 241 242 242 242 242 243 245 246 248 250 252 254 255 256 257 258 259 261 264 265 267
267 265 261 259 258 257 257 256 254 251 250 249 247 246 245 244 243 242 241 240 240 239 239 240 241 242 244 243 244 246 248 251 253 254 255 256 258 258 259 261 263 265 267
268 266 263 261 260 259 257 256 255 253 251 250 248 245 244 244 244 242 240 239 238 238 238 239 240 241 242 243 245 247 249 251 253 254 255 256 257 258 260 262 263 265 267
270 267 265 263 262 261 260 259 257 254 251 249 247 245 244 243 243 242 240 239 239 238 238 238 239 240 241 243 246 248 249 251 252 253 254 255 256 258 260 261 263 265 267
Height
5601 5605 5608 5612 5616 5620 5625 5630 5634 5640 5646 5652 5657 5662 5668 5675 5680 5686 5692 5698 5704 5709 5714 5719 5724 5729 5733 5738 5742 5745 5748 5752 5755 5758 5760 5762 5764 5766 5767 5768 5768 5769 5770
5589 5593 5597 5601 5605 5609 5613 5617 5622 5628 5633 5639 5644 5650 5656 5662 5668 5674 5680 5686 5691 5697 5702 5708 5713 5717 5722 5727 5731 5734 5738 5741 5745 5748 5751 5752 5754 5756 5757 5758 5759 5760 5760
5579 5582 5585 5589 5593 5597 5601 5605 5610 5615 5620 5626 5632 5638 5643 5649 5656 5662 5668 5674 5680 5685 5690 5696 5701 5706 5711 5715 5720 5724 5727 5731 5734 5737 5740 5742 5744 5746 5747 5748 5749 5750 5750
5568 5571 5574 5577 5581 5585 5589 5593 5598 5603 5608 5614 5620 5626 5631 5637 5643 5649 5656 5661 5668 5673 5678 5684 5689 5694 5699 5704 5708 5712 5716 5719 5723 5726 5729 5732 5734 5735 5737 5738 5739 5739 5740
5557 5560 5562 5565 5569 5572 5576 5580 5585 5590 5595 5601 5607 5613 5619 5625 5631 5637 5643 5649 5655 5660 5666 5672 5677 5682 5687 5691 5696 5700 5704 5708 5711 5714 5718 5720 5722 5724 5726 5727 5728 5728 5729
5546 5548 5551 5554 5557 5560 5564 5568 5573 5577 5583 5588 5594 5600 5607 5613 5619 5625 5631 5637 5642 5648 5654 5659 5664 5669 5674 5679 5684 5688 5692 5695 5699 5702 5706 5708 5711 5713 5715 5716 5716 5717 5718
5535 5537 5539 5542 5545 5548 5552 5556 5560 5565 5570 5575 5581 5587 5594 5600 5606 5612 5618 5624 5630 5635 5641 5646 5652 5657 5662 5666 5671 5675 5679 5682 5687 5690 5693 5696 5699 5701 5703 5704 5705 5705 5706
5523 5525 5527 5530 5532 5535 5539 5543 5548 5552 5557 5563 5568 5574 5581 5587 5593 5599 5605 5611 5617 5622 5628 5634 5639 5644 5649 5653 5658 5662 5666 5670 5674 5677 5682 5684 5686 5688 5690 5691 5692 5693 5694
5511 5513 5515 5517 5520 5523 5527 5531 5535 5539 5544 5549 5555 5561 5567 5574 5580 5586 5592 5597 5603 5609 5615 5621 5626 5631 5636 5640 5645 5649 5654 5657 5659 5663 5667 5670 5672 5675 5677 5678 5679 5680 5681
5499 5501 5503 5505 5508 5511 5515 5519 5522 5526 5531 5536 5542 5547 5553 5560 5566 5572 5578 5584 5591 5597 5602 5608 5613 5618 5623 5626 5631 5635 5640 5644 5647 5650 5653 5656 5659 5661 5663 5664 5665 5666 5667
5487 5489 5491 5493 5496 5499 5503 5506 5510 5514 5519 5523 5529 5534 5540 5546 5552 5558 5564 5570 5576 5582 5588 5594 5600 5604 5609 5613 5617 5622 5627 5630 5633 5636 5639 5642 5644 5647 5649 5650 5651 5652 5653
5476 5477 5479 5481 5484 5487 5490 5494 5498 5502 5506 5510 5515 5520 5526 5532 5537 5544 5549 5555 5562 5567 5573 5580 5585 5590 5595 5599 5603 5608 5612 5615 5619 5622 5625 5628 5630 5633 5635 5636 5637 5638 5639
5465 5466 5468 5470 5472 5475 5478 5481 5485 5489 5493 5497 5501 5506 5512 5517 5523 5529 5535 5541 5546 5552 5559 5565 5570 5575 5580 5584 5589 5593 5597 5600 5603 5607 5611 5614 5616 5618 5620 5621 5622 5623 5624
5454 5455 5457 5459 5461 5463 5466 5469 5473 5476 5480 5484 5488 5492 5497 5503 5508 5514 5520 5526 5531 5537 5543 5549 5555 5560 5565 5570 5574 5578 5582 5586 5589 5593 5596 5599 5601 5603 5604 5606 5607 5608 5609
5444 5445 5446 5448 5450 5452 5455 5458 5461 5464 5468 5471 5475 5479 5484 5490 5495 5500 5505 5511 5517 5523 5528 5534 5539 5545 5550 5555 5559 5564 5567 5571 5574 5578 5581 5584 5586 5588 5590 5591 5592 5592 5593
5435 5436 5437 5438 5440 5442 5444 5447 5449 5453 5456 5459 5462 5467 5471 5476 5481 5486 5491 5497 5502 5508 5513 5518 5524 5530 5535 5540 5545 5549 5553 5556 5559 5563 5566 5568 5571 5573 5575 5576 5576 5577 5578
5426 5426 5427 5428 5430 5432 5434 5436 5439 5442 5444 5448 5451 5455 5459 5464 5468 5473 5478 5484 5489 5493 5498 5504 5510 5515 5520 5525 5530 5534 5538 5542 5545 5548 5551 5553 5555 5557 5559 5560 5561 5562 5562
5416 5417 5418 5419 5420 5422 5424 5426 5429 5431 5434 5436 5440 5444 5448 5452 5457 5461 5466 5470 5475 5479 5484 5490 5495 5501 5505 5510 5515 5519 5523 5527 5530 5533 5536 5538 5540 5542 5544 5545 5546 5547 5547
5407 5408 5408 5409 5411 5413 5414 5416 5419 5421 5423 5426 5429 5433 5437 5441 5445 5449 5453 5457 5463 5467 5472 5477 5481 5487 5491 5496 5500 5504 5508 5512 5515 5518 5521 5523 5525 5527 5528 5530 5531 5531 5532
5398 5399 5400 5401 5402 5403 5405 5407 5409 5411 5414 5416 5419 5422 5425 5429 5433 5437 5441 5446 5450 5455 5459 5463 5468 5473 5478 5482 5486 5490 5494 5498 5501 5504 5507 5509 5510 5512 5513 5514 5515 5516 5517
5390 5390 5391 5392 5393 5394 5396 5398 5399 5401 5404 5406 5409 5412 5415 5418 5422 5426 5430 5434 5438 5443 5447 5451 5455 5460 5464 5469 5473 5477 5481 5484 5487 5490 5492 5494 5496 5497 5499 5500 5501 5501 5502
5381 5382 5383 5383 5385 5386 5387 5388 5390 5391 5393 5396 5398 5401 5404 5407 5410 5414 5418 5422 5426 5430 5434 5438 5443 5447 5451 5456 5460 5464 5467 5470 5473 5476 5478 5480 5481 5483 5485 5486 5487 5487 5488
5373 5374 5374 5375 5376 5377 5378 5379 5380 5382 5384 5386 5388 5390 5393 5396 5399 5403 5407 5411 5414 5418 5422 5427 5431 5435 5439 5443 5447 5451 5454 5457 5460 5462 5464 5466 5468 5470 5471 5472 5473 5474 5474
5366 5366 5366 5367 5367 5368 5369 5370 5371 5372 5374 5376 5378 5380 5383 5386 5389 5392 5395 5399 5403 5407 5411 5415 5419 5423 5427 5431 5434 5438 5441 5444 5446 5449 5451 5453 5455 5457 5458 5459 5460 5460 5460
5359 5359 5359 5359 5359 5360 5361 5361 5362 5363 5365 5366 5368 5371 5373 5376 5378 5382 5385 5389 5392 5396 5400 5404 5408 5412 5416 5419 5422 5425 5428 5431 5433 5436 5438 5440 5442 5444 5445 5446 5447 5447 5447
5352 5352 5352 5352 5352 5352 5352 5353 5353 5354 5355 5357 5359 5361 5364 5366 5369 5372 5375 5378 5382 5385 5389 5393 5397 5401 5404 5408 5411 5414 5416 5419 5421 5424 5426 5428 5430 5432 5433 5434 5434 5435 5435